Home > Weather > St. Peter Port > Past weeks

Flag for Guernsey Weather for the Past 2 Weeks in St. Peter Port, Guernsey

Now
45 °F

Passing clouds.


Feels Like: 40 °F
Forecast: 45 / 53 °F
Wind: 8 mph from Northwest

Location: Guernsey Airport

Current Time: Apr 29, 2016 at 11:35:18 PM

Latest Report: Apr 29, 2016 at 8:50 PM


Visibility: N/A

Pressure: 29.98 "Hg

Humidity: 71%

Dew Point: 36 °F

Location of St. Peter PortLocation

Historic Weather in St. Peter Port — Graph

°F

St. Peter Port Temperature Yesterday

Maximum temperature yesterday: 52 °F (at 12:20 PM)
Minimum temperature yesterday: 39 °F (at 5:50 AM)
Average temperature yesterday: 47 °F

High & Low Weather Summary for the Past Weeks

 TemperatureHumidityPressure
High57 °F (Apr 21, 2:50 PM)100% (Apr 14, 8:20 PM)30.33 "Hg (Apr 14, 8:20 PM)
Low39 °F (Apr 17, 10:20 AM)43% (Apr 26, 12:20 PM)29.47 "Hg (Apr 15, 12:20 PM)
Average48 °F75%30.01 "Hg
* Reported Apr 14 8:20 PM — Apr 29 8:50 PM, St. Peter Port, Weather by CustomWeather, © 2016

Note: Actual official high and low records may vary slightly from our data, if they occured in-between our weather recording intervals... More about our weather records

Advertising

St. Peter Port Weather History for the Previous 24 Hours

Scroll right to see more
 ConditionsComfort  
Time TempWeatherWind HumidityBarometerVisibility
8:50 PM
Fri, Apr 29
45 °FPassing clouds.8 mph71%29.98 "HgN/A
8:20 PM45 °FPassing clouds.7 mph71%29.98 "HgN/A
7:50 PM46 °FPassing clouds.9 mph71%29.98 "HgN/A
7:20 PM46 °FPassing clouds.9 mph71%29.95 "HgN/A
6:50 PM46 °FPassing clouds.9 mph71%29.95 "HgN/A
6:20 PM46 °FPassing clouds.10 mph71%29.95 "HgN/A
5:50 PM46 °FPassing clouds.12 mph71%29.95 "HgN/A
5:20 PM46 °FPassing clouds.15 mph71%29.95 "HgN/A
4:50 PM46 °FScattered clouds.14 mph71%29.95 "HgN/A
4:20 PM46 °FScattered clouds.13 mph82%29.95 "HgN/A
3:50 PM46 °FScattered clouds.12 mph82%29.95 "HgN/A
3:20 PM45 °FLight rain. Scattered clouds.8 mph87%29.95 "HgN/A
2:50 PM45 °FLight rain. Scattered clouds.8 mph87%29.98 "HgN/A
2:20 PM43 °FRain. Broken clouds.13 mph87%29.98 "HgN/A
1:50 PM45 °FRain. Broken clouds.12 mph81%29.95 "HgN/A
1:20 PM45 °FRain. Scattered clouds.14 mph81%29.95 "HgN/A
12:50 PM46 °FLight rain. Passing clouds.12 mph76%29.95 "HgN/A
12:20 PM46 °FLight rain. Passing clouds.13 mph76%29.95 "HgN/A
11:50 AM48 °FScattered showers. Passing clouds.12 mph71%29.95 "HgN/A
11:20 AM48 °FPassing clouds.15 mph71%29.95 "HgN/A
10:50 AM48 °FScattered clouds.14 mph66%29.95 "HgN/A
10:20 AM48 °FPassing clouds.13 mph66%29.95 "HgN/A
9:50 AM48 °FPassing clouds.13 mph66%29.95 "HgN/A
9:20 AM48 °FPassing clouds.14 mph71%29.95 "HgN/A
8:50 AM48 °FPassing clouds.13 mph76%29.95 "HgN/A
8:20 AM48 °FPassing clouds.15 mph76%29.92 "HgN/A
7:20 AM46 °FScattered clouds.10 mph87%29.92 "HgN/A
6:50 AM46 °FScattered showers. Scattered clouds.8 mph82%29.92 "HgN/A
6:20 AM46 °FPassing clouds.12 mph87%29.92 "HgN/A
5:50 AM45 °FPassing clouds.10 mph87%29.92 "HgN/A
5:20 AM45 °FScattered showers. Passing clouds.12 mph81%29.92 "HgN/A
4:50 AM45 °FScattered showers. Passing clouds.12 mph93%29.92 "HgN/A
4:20 AM46 °FSprinkles. Passing clouds.10 mph87%29.92 "HgN/A
Weather by CustomWeather, © 2016

See weather overviewHow to use our weather pages